When you browse on this site, cookies collect data to enhance your experience and personalize the content and advertising you see.
Visit our Privacy Policy to learn more. By continuing to use the site, you agree to this use of cookies and data.
  • In Latvia
  • List of Countries
  • For 7 days
  • Water Temperature
  • Weather Map
  • Weather Widgets
  • user-avatar
    Login

    Hourly Weather Sharan

    Today, 19 August, Monday

    Time Temperature Precipitation Wind Pressure Humidity
    00:00 +22°C° 0 mm 4 mps 588 mmHg 41%
    01:00 +21°C° 0 mm 4 mps 588 mmHg 47%
    02:00 +20°C° 0 mm 3 mps 587 mmHg 52%
    03:00 +20°C° 0 mm 2 mps 587 mmHg 55%
    04:00 +19°C° 0 mm 2 mps 587 mmHg 58%
    05:00 +20°C° 0 mm 1 mps 587 mmHg 63%
    06:00 +20°C° 0 mm 1 mps 588 mmHg 58%
    07:00 +19°C° 0 mm 0 mps 588 mmHg 52%
    08:00 +19°C° 0 mm 0 mps 589 mmHg 47%
    09:00 +21°C° 0 mm 0 mps 589 mmHg 40%
    10:00 +24°C° 0 mm 1 mps 589 mmHg 33%
    11:00 +25°C° 0 mm 1 mps 590 mmHg 26%
    12:00 +26°C° 0 mm 2 mps 590 mmHg 21%
    13:00 +28°C° 0 mm 3 mps 590 mmHg 16%
    14:00 +29°C° 0 mm 4 mps 590 mmHg 11%
    15:00 +29°C° 0 mm 5 mps 590 mmHg 10%
    16:00 +30°C° 0 mm 5 mps 590 mmHg 9%
    17:00 +30°C° 0 mm 6 mps 589 mmHg 8%
    18:00 +29°C° 0 mm 6 mps 589 mmHg 12%
    19:00 +27°C° 0 mm 6 mps 589 mmHg 16%
    20:00 +26°C° 0 mm 6 mps 589 mmHg 20%
    21:00 +25°C° 0 mm 5 mps 589 mmHg 24%
    22:00 +23°C° 0 mm 4 mps 589 mmHg 29%
    23:00 +22°C° 0 mm 4 mps 589 mmHg 34%

    Tomorrow, 20 August, Tuesday

    Time Temperature Precipitation Wind Pressure Humidity
    00:00 +22°C° 0 mm 3 mps 588 mmHg 38%
    01:00 +21°C° 0 mm 3 mps 588 mmHg 42%
    02:00 +20°C° 0 mm 2 mps 587 mmHg 47%
    03:00 +20°C° 0 mm 2 mps 587 mmHg 48%
    04:00 +20°C° 0 mm 1 mps 587 mmHg 50%
    05:00 +20°C° 0 mm 1 mps 587 mmHg 51%
    06:00 +20°C° 0 mm 1 mps 587 mmHg 47%
    07:00 +21°C° 0 mm 1 mps 588 mmHg 42%
    08:00 +22°C° 0 mm 1 mps 588 mmHg 38%
    09:00 +23°C° 0 mm 1 mps 589 mmHg 31%
    10:00 +24°C° 0 mm 1 mps 589 mmHg 25%
    11:00 +26°C° 0 mm 1 mps 590 mmHg 18%
    12:00 +26°C° 0 mm 1 mps 589 mmHg 15%
    13:00 +27°C° 0 mm 1 mps 589 mmHg 12%
    14:00 +28°C° 0 mm 2 mps 589 mmHg 9%
    15:00 +29°C° 0 mm 1 mps 589 mmHg 9%
    16:00 +29°C° 0 mm 1 mps 589 mmHg 8%
    17:00 +29°C° 0 mm 1 mps 588 mmHg 7%
    18:00 +29°C° 0 mm 2 mps 589 mmHg 8%
    19:00 +28°C° 0 mm 2 mps 589 mmHg 10%
    20:00 +27°C° 0 mm 3 mps 589 mmHg 11%
    21:00 +26°C° 0 mm 3 mps 588 mmHg 13%
    22:00 +25°C° 0 mm 3 mps 588 mmHg 14%
    23:00 +24°C° 0 mm 3 mps 588 mmHg 16%

    Day after tomorrow, 21 August, Wednesday

    Time Temperature Precipitation Wind Pressure Humidity
    00:00 +22°C° 0 mm 3 mps 587 mmHg 18%
    01:00 +23°C° 0 mm 2 mps 587 mmHg 21%
    02:00 +21°C° 0 mm 2 mps 587 mmHg 24%
    03:00 +21°C° 0 mm 1 mps 586 mmHg 27%
    04:00 +20°C° 0 mm 1 mps 586 mmHg 30%
    05:00 +20°C° 0 mm 1 mps 585 mmHg 33%
    06:00 +20°C° 0 mm 1 mps 586 mmHg 31%
    07:00 +21°C° 0 mm 1 mps 587 mmHg 28%
    08:00 +22°C° 0 mm 1 mps 587 mmHg 26%
    09:00 +23°C° 0 mm 1 mps 588 mmHg 22%
    10:00 +25°C° 0 mm 2 mps 588 mmHg 18%
    11:00 +26°C° 0 mm 2 mps 588 mmHg 15%
    12:00 +27°C° 0 mm 1 mps 588 mmHg 13%
    13:00 +28°C° 0 mm 1 mps 588 mmHg 11%
    14:00 +29°C° 0 mm 1 mps 588 mmHg 9%
    15:00 +29°C° 0 mm 1 mps 588 mmHg 8%
    16:00 +30°C° 0 mm 1 mps 588 mmHg 7%
    17:00 +30°C° 0 mm 1 mps 588 mmHg 7%
    18:00 +29°C° 0 mm 2 mps 588 mmHg 9%
    19:00 +28°C° 0 mm 2 mps 588 mmHg 11%
    20:00 +27°C° 0 mm 2 mps 588 mmHg 14%
    21:00 +27°C° 0 mm 2 mps 588 mmHg 16%
    22:00 +26°C° 0 mm 2 mps 587 mmHg 19%
    23:00 +25°C° 0 mm 2 mps 587 mmHg 22%

    22 August, Thursday

    Time Temperature Precipitation Wind Pressure Humidity
    00:00 +24°C° 0 mm 2 mps 587 mmHg 24%
    01:00 +23°C° 0 mm 2 mps 587 mmHg 26%
    02:00 +21°C° 0 mm 2 mps 586 mmHg 28%
    03:00 +22°C° 0 mm 1 mps 586 mmHg 33%
    04:00 +21°C° 0 mm 1 mps 586 mmHg 37%
    05:00 +18°C° 0 mm 0 mps 585 mmHg 42%
    06:00 +19°C° 0 mm 0 mps 586 mmHg 39%
    07:00 +20°C° 0 mm 0 mps 587 mmHg 36%
    08:00 +21°C° 0 mm 0 mps 587 mmHg 33%
    09:00 +22°C° 0 mm 0 mps 588 mmHg 29%
    10:00 +23°C° 0 mm 0 mps 588 mmHg 24%
    11:00 +25°C° 0 mm 0 mps 588 mmHg 20%
    12:00 +26°C° 0 mm 0 mps 588 mmHg 17%
    13:00 +29°C° 0 mm 1 mps 588 mmHg 14%
    14:00 +30°C° 0 mm 1 mps 589 mmHg 12%
    15:00 +30°C° 0 mm 1 mps 588 mmHg 10%
    16:00 +31°C° 0 mm 2 mps 588 mmHg 9%
    17:00 +31°C° 0 mm 3 mps 588 mmHg 8%
    18:00 +30°C° 0 mm 3 mps 588 mmHg 11%
    19:00 +29°C° 0 mm 4 mps 588 mmHg 15%
    20:00 +28°C° 0 mm 5 mps 588 mmHg 19%
    21:00 +27°C° 0 mm 4 mps 588 mmHg 26%
    22:00 +26°C° 0 mm 3 mps 588 mmHg 33%
    23:00 +25°C° 0 mm 3 mps 588 mmHg 40%

    23 August, Friday

    Time Temperature Precipitation Wind Pressure Humidity
    00:00 +24°C° 0 mm 3 mps 587 mmHg 43%
    01:00 +23°C° 0 mm 2 mps 587 mmHg 45%
    02:00 +23°C° 0 mm 2 mps 586 mmHg 48%
    03:00 +22°C° 0 mm 1 mps 586 mmHg 51%
    04:00 +22°C° 0 mm 1 mps 586 mmHg 53%
    05:00 +21°C° 0 mm 1 mps 586 mmHg 55%
    06:00 +20°C° 0 mm 0 mps 586 mmHg 52%
    07:00 +20°C° 0 mm 0 mps 587 mmHg 48%
    08:00 +21°C° 0 mm 0 mps 588 mmHg 45%
    09:00 +22°C° 0 mm 0 mps 588 mmHg 37%
    10:00 +24°C° 0 mm 0 mps 588 mmHg 30%
    11:00 +25°C° 0 mm 0 mps 589 mmHg 23%
    12:00 +28°C° 0 mm 1 mps 589 mmHg 20%
    13:00 +29°C° 0 mm 1 mps 589 mmHg 17%
    14:00 +30°C° 0 mm 1 mps 589 mmHg 14%
    15:00 +31°C° 0 mm 2 mps 589 mmHg 13%
    16:00 +31°C° 0 mm 2 mps 589 mmHg 11%
    17:00 +31°C° 0 mm 3 mps 588 mmHg 9%
    18:00 +31°C° 0 mm 3 mps 588 mmHg 11%
    19:00 +30°C° 0 mm 3 mps 588 mmHg 12%
    20:00 +29°C° 0 mm 4 mps 588 mmHg 13%
    21:00 +28°C° 0 mm 4 mps 588 mmHg 18%
    22:00 +27°C° 0 mm 4 mps 588 mmHg 22%
    23:00 +26°C° 0 mm 4 mps 588 mmHg 27%

    24 August, Saturday

    Time Temperature Precipitation Wind Pressure Humidity
    00:00 +25°C° 0 mm 3 mps 588 mmHg 29%
    01:00 +24°C° 0 mm 3 mps 587 mmHg 32%
    02:00 +24°C° 0 mm 2 mps 587 mmHg 34%
    03:00 +23°C° 0 mm 2 mps 587 mmHg 36%
    04:00 +22°C° 0 mm 1 mps 586 mmHg 39%
    05:00 +21°C° 0 mm 1 mps 586 mmHg 41%
    06:00 +22°C° 0 mm 1 mps 587 mmHg 37%
    07:00 +23°C° 0 mm 1 mps 587 mmHg 34%
    08:00 +24°C° 0 mm 1 mps 588 mmHg 31%
    09:00 +25°C° 0 mm 1 mps 588 mmHg 27%
    10:00 +26°C° 0 mm 1 mps 589 mmHg 24%
    11:00 +26°C° 0 mm 0 mps 589 mmHg 20%
    12:00 +29°C° 0 mm 1 mps 589 mmHg 18%
    13:00 +30°C° 0 mm 1 mps 589 mmHg 15%
    14:00 +31°C° 0 mm 1 mps 589 mmHg 13%
    15:00 +31°C° 0 mm 2 mps 589 mmHg 11%
    16:00 +32°C° 0 mm 2 mps 589 mmHg 10%
    17:00 +33°C° 0 mm 3 mps 589 mmHg 9%
    18:00 +32°C° 0 mm 4 mps 589 mmHg 10%
    19:00 +30°C° 0 mm 4 mps 589 mmHg 11%
    20:00 +29°C° 0 mm 5 mps 588 mmHg 12%
    21:00 +28°C° 0 mm 5 mps 588 mmHg 13%
    22:00 +27°C° 0 mm 5 mps 588 mmHg 14%
    23:00 +26°C° 0 mm 5 mps 588 mmHg 15%
    Show more